Weather Roundup
Issued by NWS Chicago, IL

Home | Current Version | Previous Version | Graphics & Text | Print | Product List | Glossary On
Versions: 1 2 3 4 5 6 7 8 9 10 11 12 13 14 15 16 17 18 19 20 21 22 23 24 25 26 27 28 29 30 31 32 33 34 35 36 37 38 39 40 41 42 43 44 45 46 47 48 49 50
000
NZUS59 KLOT 220512
HRRLOT

CHICAGO AREA WEATHER ROUNDUP
NATIONAL WEATHER SERVICE CHICAGO/ROMEOVILLE IL
1100 PM CST SAT JAN 21 2017

NOTE: "FAIR" INDICATES FEW OR NO CLOUDS BELOW 12,000 FEET WITH NO
SIGNIFICANT WEATHER AND/OR OBSTRUCTIONS TO VISIBILITY.

* THESE STATIONS ARE NOT UNDER NWS QUALITY CONTROL. THEY ALSO MAY NOT
  REPORT WEATHER SUCH AS PRECIPITATION OR FOG.

ILZ005-006-012>014-019>023-220600-
NORTHEAST ILLINOIS

CITY           SKY/WX    TMP DP  RH WIND       PRES   REMARKS
OHARE          FOG       41  41 100 NW9       29.60R VSB 1/8
MIDWAY         MOCLDY    43  40  89 CALM      29.59S
AURORA         FOG       41  40  96 CALM      29.60S VSB 1/4
LANSING*       FOG       34  34 100 CALM      29.60S VSB 1/4
JOLIET*        FOG       39  39 100 N5        29.61R VSB<1/4
WAUKEGAN       CLOUDY    42  41  96 W6        29.59R FOG
DUPAGE AIRPORT FOG       42  40  92 NW5       29.60R VSB 1/4
WHEELING       FOG       42  41  96 NW5       29.61R VSB 3/4
KANKAKEE*      CLOUDY    40  40  98 CALM      29.60S
MORRIS*        FOG       37  37  97 CALM      29.60S VSB 1/4
LEWIS AIRPORT* DRZL/FOG  37  37 100 NW6       29.60R VSB 1/4
NORTHERLY ISL    N/A     48  42  80 SW2         N/A
$$

WIZ051-052-058>065-066-070>072-220600-
SOUTHEAST WISCONSIN

CITY           SKY/WX    TMP DP  RH WIND       PRES   REMARKS
MILWAUKEE      CLOUDY    44  40  85 W6        29.59R
KENOSHA*       CLOUDY    42  40  92 W7        29.59S FOG
RACINE*        CLOUDY    42  39  89 W9        29.60R
WAUKESHA       CLOUDY    39  37  93 CALM      29.59S FOG
WEST BEND      CLOUDY    41  41 100 SW3       29.57S
$$

INZ001>003-010>013-019-020-220600-
NORTHWEST INDIANA

CITY           SKY/WX    TMP DP  RH WIND       PRES   REMARKS
GARY*            N/A     38  38 100 CALM      29.60S FOG
MICHIGAN CITY* NOT AVBL
RENSSELAER*    NOT AVBL
VALPARAISO     FOG       41  41 100 CALM      29.60S VSB 1/4
$$

LMZ740>746-220600-
SOUTHERN LAKE MICHIGAN

STATION/POSITION TIME  SKY/WX   TEMP WIND        PRES    VSBY
                                AIR  DIR/SP/G
                 (UTC)          (F)  (DEG/KT/KT) (MB)    (MI)
HARRISON CRIB    0440            51  300/  3/  3   N/A
BURNHAM HARBOR   0500            46  260/  2/  5   N/A
CALUMET HARBOR   0448            44  190/  2/  2 1001.6F
BURNS HARBOR     0440            48  200/  3/  4 1003.0S
MICHIGAN CITY    0440            49  200/  3/  4   N/A
$$

ABBREVIATIONS USED IN REMARKS
   TC - TEMPERATURE IN CELSIUS
  WCI - WIND CHILL INDEX
   HX - HEAT INDEX
  VSB - VISIBILITY
$$



USA.gov is the U.S. government's official web portal to all federal, state and local government web resources and services.